Weather History for Tatalina, AK

Change the Weather History Date:

Tuesday, May 6, 2014

  Actual Average Record
Temperature  
Mean Temperature 36 °F -  
Max Temperature 40 °F 44 °F 62 °F (2004)
Min Temperature 32 °F 31 °F 24 °F (2013)
Degree Days  
Heating Degree Days 30    
Moisture  
Dew Point 35 °F    
Average Humidity 97    
Maximum Humidity 100    
Minimum Humidity 87    
Precipitation  
Precipitation 0.25 in - - ()
Sea Level Pressure  
Sea Level Pressure 29.78 in    
Wind  
Wind Speed 4 mph (SSW)    
Max Wind Speed 7 mph    
Max Gust Speed -    
Visibility 8 miles    
Events Fog , Rain , Snow    
Averages and records for this station are not official NWS values.
T = Trace of Precipitation, MM = Missing Value Source: NWS Daily Summary

Daily Weather History Graph

Daily Weather History Graph

Search for Another Location

Airport:

Trip Planner

Search our weather history database for the weather conditions in past years. The results will help you decide how hot, cold, wet, or windy it might be!

Date:

Astronomy

May. 06, 2014 Rise Set
Actual Time 5:48 AM AKDT 10:54 PM AKDT
Civil Twilight 4:39 AM AKDT 12:05 AM AKDT
Nautical Twilight 2:52 AM AKDT 1:48 AM AKDT
Astronomical Twilight Sun does not rise Sun does not rise
Moon 12:45 PM AKDT (5/6) 3:52 AM AKDT (5/6)
Length of Visible Light 19h 25m
Length of Day
17h 06m
Waxing Crescent, 47% of the Moon is Illuminated
May 6
Waxing Crescent
May 6
First Quarter
May 14
Full
May 21
Last Quarter
May 28
New

Hourly Weather History & Observations

Time (AKDT) Temp. Windchill Dew Point Humidity Pressure Visibility Wind Dir Wind Speed Gust Speed Precip Events Conditions
3:55 AM 34.9 °F 30.8 °F 31.3 °F 87% 29.83 in 10.0 mi East 4.6 mph - N/A   Overcast
4:41 AM 35.6 °F 32.8 °F 32.0 °F 87% 29.82 in 10.0 mi ENE 3.5 mph - N/A   Mostly Cloudy
4:55 AM 34.9 °F 32.0 °F 32.0 °F 89% 29.82 in 10.0 mi ENE 3.5 mph - N/A   Mostly Cloudy
5:26 AM 33.8 °F - 32.0 °F 93% 29.82 in 10.0 mi East 2.3 mph - N/A Rain Light Rain
5:41 AM 33.8 °F 30.8 °F 32.0 °F 93% 29.82 in 10.0 mi East 3.5 mph - N/A Rain Light Rain Showers
6:26 AM 33.8 °F - 32.0 °F 93% 29.81 in 5.0 mi ENE 2.3 mph - N/A Rain , Snow Light Rain Showers
6:55 AM 33.1 °F - 32.9 °F 99% 29.81 in 4.0 mi NE 2.3 mph - 0.01 in Rain , Snow Light Rain
7:11 AM 33.8 °F - 33.8 °F 100% 29.81 in 2.0 mi NNE 1.2 mph - N/A Rain , Snow Light Rain
7:26 AM 33.8 °F - 33.8 °F 100% 29.81 in 2.0 mi Variable 1.2 mph - N/A Rain , Snow Light Rain
7:41 AM 32.0 °F - 32.0 °F 100% 29.81 in 2.5 mi West 2.3 mph - N/A Rain , Snow Light Rain
7:55 AM 32.4 °F - 32.7 °F 100% 29.81 in 2.0 mi West 2.3 mph - 0.02 in Snow Light Snow
8:11 AM 32.0 °F - 32.0 °F 100% 29.81 in 2.5 mi West 2.3 mph - N/A Snow Light Snow
8:41 AM 32.0 °F 28.7 °F 32.0 °F 100% 29.80 in 4.0 mi WSW 3.5 mph - N/A Snow Light Snow
8:55 AM 32.9 °F 29.8 °F 33.3 °F 100% 29.80 in 3.0 mi West 3.5 mph - 0.01 in Snow Light Snow
9:41 AM 33.8 °F 29.6 °F 33.8 °F 100% 29.80 in 10.0 mi SW 4.6 mph - N/A Rain , Snow Light Rain
9:55 AM 34.3 °F 31.4 °F 34.5 °F 100% 29.80 in 10.0 mi SW 3.5 mph - 0.01 in Rain Light Rain
10:55 AM 36.0 °F 33.3 °F 35.2 °F 97% 29.79 in 10.0 mi WSW 3.5 mph - 0.00 in Rain Light Rain
11:55 AM 36.3 °F 32.5 °F 35.6 °F 97% 29.78 in 10.0 mi South 4.6 mph - 0.02 in Rain Light Rain
12:11 PM 35.6 °F 30.7 °F 35.6 °F 100% 29.78 in 10.0 mi SW 5.8 mph - N/A Rain Light Rain
12:41 PM 35.6 °F 30.7 °F 35.6 °F 100% 29.78 in 10.0 mi SSW 5.8 mph - N/A Rain Light Rain
12:55 PM 36.3 °F 32.5 °F 36.0 °F 99% 29.78 in 10.0 mi SSW 4.6 mph - 0.02 in Rain Light Rain
1:11 PM 35.6 °F 32.8 °F 35.6 °F 100% 29.78 in 10.0 mi SSW 3.5 mph - N/A Rain Light Rain
1:41 PM 37.4 °F 34.9 °F 35.6 °F 93% 29.77 in 10.0 mi Variable 3.5 mph - N/A Rain Light Rain
1:55 PM 37.2 °F 33.6 °F 36.9 °F 99% 29.77 in 10.0 mi SSW 4.6 mph - 0.01 in Rain Light Rain
2:55 PM 38.1 °F 35.7 °F 37.6 °F 98% 29.76 in 9.0 mi SSW 3.5 mph - 0.02 in Rain Light Rain
3:11 PM 39.2 °F 37.0 °F 37.4 °F 93% 29.76 in 10.0 mi SSW 3.5 mph - N/A Rain Light Rain
3:41 PM 39.2 °F 37.0 °F 37.4 °F 93% 29.76 in 10.0 mi SW 3.5 mph - N/A Rain Light Rain
3:55 PM 39.4 °F - 38.1 °F 95% 29.76 in 10.0 mi WSW 2.3 mph - 0.01 in Rain Light Rain
4:11 PM 39.2 °F 37.0 °F 37.4 °F 93% 29.75 in 10.0 mi South 3.5 mph - N/A Rain Light Rain
4:41 PM 39.2 °F 37.0 °F 39.2 °F 100% 29.75 in 10.0 mi WSW 3.5 mph - N/A Rain Light Rain
4:55 PM 39.9 °F - 37.9 °F 93% 29.75 in 10.0 mi West 2.3 mph - 0.01 in Rain Light Rain
5:11 PM 39.2 °F 37.0 °F 39.2 °F 100% 29.75 in 10.0 mi WNW 3.5 mph - N/A Rain Light Rain
5:26 PM 39.2 °F 35.0 °F 37.4 °F 93% 29.74 in 10.0 mi Variable 5.8 mph - N/A Rain Light Rain
5:41 PM 39.2 °F 34.2 °F 37.4 °F 93% 29.74 in 10.0 mi NW 6.9 mph - N/A Rain Light Rain
5:55 PM 39.2 °F 35.0 °F 36.3 °F 89% 29.74 in 10.0 mi Variable 5.8 mph - 0.00 in Rain Light Rain
6:55 PM 38.3 °F 35.9 °F 36.3 °F 93% 29.74 in 10.0 mi Variable 3.5 mph - 0.00 in Rain Light Rain
7:11 PM 37.4 °F - 35.6 °F 93% 29.74 in 10.0 mi Variable 2.3 mph - N/A Rain Light Rain
7:55 PM 37.4 °F - 36.0 °F 95% 29.75 in 10.0 mi WNW 2.3 mph - 0.03 in Rain Light Rain
8:41 PM 37.4 °F 34.9 °F 35.6 °F 93% 29.75 in 9.0 mi Variable 3.5 mph - N/A Rain Light Rain
8:55 PM 36.5 °F 33.9 °F 36.0 °F 98% 29.75 in 10.0 mi East 3.5 mph - 0.04 in Rain Light Rain
9:11 PM 35.6 °F 32.8 °F 35.6 °F 100% 29.75 in 10.0 mi East 3.5 mph - N/A Rain Light Rain
9:26 PM 35.6 °F 32.8 °F 35.6 °F 100% 29.75 in 10.0 mi East 3.5 mph - N/A Rain Light Rain
9:55 PM 34.9 °F 32.0 °F 34.9 °F 100% 29.76 in 10.0 mi East 3.5 mph - 0.02 in Rain Light Rain
10:41 PM 33.8 °F 30.8 °F 33.8 °F 100% 29.76 in 1.0 mi ESE 3.5 mph - N/A Rain Light Rain
10:55 PM 34.2 °F 30.0 °F 34.3 °F 100% 29.76 in 0.2 mi ESE 4.6 mph - 0.02 in Fog , Rain Light Rain
11:11 PM 33.8 °F - 33.8 °F 100% 29.76 in 1.0 mi ESE 2.3 mph - N/A Rain Light Rain
11:41 PM 33.8 °F 30.8 °F 33.8 °F 100% 29.77 in 10.0 mi WNW 3.5 mph - N/A Rain Light Rain Showers
11:55 PM 34.0 °F 29.8 °F 34.3 °F 100% 29.77 in 10.0 mi NW 4.6 mph - N/A   Mostly Cloudy